CAPE
0 0 0 0 0 0 2 0 0 0 0 0 0 0 0 0 0 0 0 0 0 0 0 0 0 0 9 34 13 0 0 0 0 0 0 0 0 0 0 0 0 0 0 0 0 0 0
0 4 0 0 0 0 2 3 2 1 0 0 0 0 0 0 0 0 0 0 0 0 0 0 0 0 5 15 0 0 0 0 0 0 0 0 0 0 0 0 0 0 0 0 0 0 0
0 0 3 0 0 2 5 4 1 0 0 0 0 0 0 0 0 0 0 0 0 0 0 0 0 4 4 0 0 0 0 0 0 0 0 0 0 0 0 0 0 0 0 0 0 0 0
0 0 0 1 1 4 5 1 0 0 0 0 0 0 0 0 0 0 0 0 0 0 0 0 0 4 1 0 0 0 0 0 2 11 14 14 19 25 20 45 25 23 3 1 0 0 0
0 1 3 3 5 6 6 5 3 0 0 0 0 0 0 0 0 0 0 0 0 0 0 0 0 0 0 0 1 3 0 3 5 1 15 61 81 71 76 32 66 26 7 11 4 0 0
3 7 11 9 9 8 7 3 0 0 0 0 0 0 0 0 0 0 0 0 0 0 0 1 10 2 0 0 0 0 0 0 0 0 0 57 75 73 58 63 66 21 7 7 2 0 0
11 16 17 9 9 9 6 11 2 0 0 0 0 0 0 0 0 0 0 0 0 0 0 0 0 0 0 0 0 0 0 0 0 0 0 0 13 29 16 75 62 88 57 23 0 0 1
15 17 14 9 12 11 11 3 0 0 0 0 0 0 0 0 0 0 0 0 0 0 0 0 0 0 0 0 0 0 0 0 0 0 0 0 0 0 0 48 67 71 75 55 51 6 47
15 18 15 16 16 18 4 0 0 0 0 0 0 0 0 0 0 0 0 0 0 0 0 0 0 0 0 0 0 0 0 0 2 0 0 4 0 0 0 0 3 10 32 32 84 17 8
20 19 20 18 19 3 0 0 0 0 0 0 0 0 0 0 0 0 0 0 0 0 0 0 0 0 0 0 0 0 0 27 0 19 3 2 0 0 2 0 0 4 10 41 34 84 57
17 26 22 8 0 1 0 0 0 0 0 0 0 0 0 0 0 0 0 0 0 0 0 0 0 0 0 0 0 0 0 1 0 0 0 0 0 0 16 1 0 0 11 20 20 6 2
18 24 23 7 0 0 0 0 0 0 0 0 0 0 0 0 0 0 0 0 0 0 0 0 0 0 0 0 0 0 0 0 1 82 70 35 0 0 34 0 13 0 3 19 33 24 4
55 35 5 0 0 0 0 0 0 0 0 0 0 0 0 0 0 0 0 0 0 0 0 0 0 0 0 0 0 0 0 0 0 6 0 0 14 10 0 0 2 4 8 25 66 4 18
24 11 5 1 0 0 0 0 0 0 0 0 0 0 0 0 0 0 0 0 0 0 0 0 0 0 0 0 0 0 0 0 17 44 14 0 0 0 0 0 3 14 2 5 58 0 10
13 7 5 5 3 1 0 0 0 0 0 0 0 0 0 0 0 0 0 0 0 0 0 0 0 0 0 0 0 0 0 0 4 8 42 4 0 0 0 0 8 20 15 0 4 0 11
7 12 17 10 1 0 0 0 0 0 0 0 0 0 0 0 0 0 0 0 0 0 0 0 0 0 0 0 0 0 0 0 0 35 1 0 2 0 0 0 0 12 8 13 113 1 5
27 19 5 2 1 0 0 0 0 0 0 0 0 0 0 0 0 0 0 0 0 0 0 0 0 0 0 9 0 0 0 0 13 0 13 2 5 0 0 10 5 0 2 1 1 0 2
15 10 6 0 0 1 1 0 0 0 0 0 0 0 0 0 0 0 0 0 0 0 0 0 0 0 2 3 0 0 22 2 0 11 11 6 1 0 0 17 32 26 7 0 0 0 0
15 7 2 0 2 3 0 0 0 0 0 0 0 0 0 0 0 0 0 0 0 0 0 0 0 0 0 0 0 0 10 10 12 0 21 17 1 0 0 0 0 0 3 7 0 0 0
13 7 6 5 1 0 0 0 0 0 0 0 0 0 0 0 0 0 0 0 0 0 0 0 0 0 0 0 0 0 0 0 0 0 5 19 24 4 0 0 17 1 0 0 0 0 0
16 14 12 3 0 0 0 0 0 0 0 0 0 0 0 0 0 0 0 0 0 0 0 0 0 0 0 0 0 0 0 0 0 0 10 0 0 0 0 0 0 0 0 0 3 2 1
14 5 3 4 2 0 0 0 0 0 0 0 0 0 0 0 0 0 0 0 0 0 0 0 0 0 0 0 0 0 0 0 0 0 0 0 0 0 0 0 0 0 0 0 0 18 0
6 6 16 5 2 0 0 0 0 0 0 0 0 0 0 0 0 0 0 0 0 0 0 0 0 0 0 0 0 0 0 0 0 0 0 0 0 0 0 0 0 0 2 0 0 0 1
30 12 6 3 1 0 0 0 0 0 0 0 0 0 0 0 0 0 0 0 0 0 0 0 0 0 0 0 0 0 0 0 0 0 0 0 0 0 0 0 0 10 4 1 1 7 0
17 19 7 1 0 0 0 0 0 0 0 0 0 0 0 1 0 0 0 0 0 0 0 0 0 0 0 0 0 0 0 0 0 0 0 0 0 0 0 0 0 21 15 15 22 15 7
17 4 0 0 0 0 0 0 0 0 0 0 0 0 0 0 0 0 0 0 0 0 0 0 0 0 0 0 0 0 0 0 0 0 0 0 0 0 0 0 1 0 1 0 0 1 18
4 1 0 0 0 0 0 0 0 0 0 0 0 0 0 0 0 0 0 0 0 0 0 0 0 0 0 0 0 0 0 9 38 42 1 0 0 0 0 0 0 0 5 0 3 1 2
0 0 0 0 0 0 0 0 0 0 0 0 0 0 0 0 0 0 0 0 0 0 0 0 0 0 0 0 0 0 0 0 2 0 1 0 0 0 0 0 0 2 0 1 1 0 0
0 0 0 0 0 0 0 0 0 0 0 0 0 0 0 0 0 0 0 0 0 0 0 0 0 0 0 0 0 0 0 0 0 0 0 0 0 0 1 0 0 1 1 4 0 0 0
CIN
-0 -0 -0 -0 -0 -0 -3 -0 -0 -0 -0 -0 -0 -0 -0 -0 -0 -0 -0 -0 -0 -0 -0 -0 -0 -0 -0 -0 -0 -0 -0 -0 -0 -0 -0 -0 -0 -0 -0 -0 -0 -0 -0 -0 -0 -0 -0
-0 -7 -0 -0 -0 -0 -0 -0 -0 -0 -0 -0 -0 -0 -0 -0 -0 -0 -0 -0 -0 -0 -0 -0 -0 -0 -0 -0 -0 -0 -0 -0 -0 -0 -0 -0 -0 -0 -0 -0 -0 -0 -0 -0 -0 -0 -0
-0 -0 -10 -0 -0 -0 -0 -0 -0 -0 -0 -0 -0 -0 -0 -0 -0 -0 -0 -0 -0 -0 -0 -0 -0 -0 -0 -0 -0 -0 -0 -0 -0 -0 -0 -0 -0 -0 -0 -0 -0 -0 -0 -0 -0 -0 -0
-0 -0 -0 -0 -0 -0 -0 -0 -0 -0 -0 -0 -0 -0 -0 -0 -0 -0 -0 -0 -0 -0 -0 -0 -0 -0 -0 -0 -0 -0 -0 -5 -12 -38 -29 -32 -62 -15 -11 -2 -9 -7 -0 -0 -0 -0 -0
-0 -0 -0 -0 -0 -0 -0 -0 -0 -0 -0 -0 -0 -0 -0 -0 -0 -0 -0 -0 -0 -0 -0 -0 -0 -0 -0 -0 -1 -16 -0 -0 -0 -4 -3 -2 -2 -1 -1 -0 -0 -6 -9 -0 -0 -0 -0
-0 -0 -0 -0 -0 -0 -0 -0 -0 -0 -0 -0 -0 -0 -0 -0 -0 -0 -0 -0 -0 -0 -0 -2 -2 -0 -0 -0 -0 -0 -0 -0 -0 -0 -0 -0 -0 -0 -0 -0 -0 -2 -6 -0 -4 -0 -0
-0 -0 -0 -0 -0 -0 -0 -0 -0 -0 -0 -0 -0 -0 -0 -0 -0 -0 -0 -0 -0 -0 -0 -0 -0 -0 -0 -0 -0 -0 -0 -0 -0 -0 -0 -0 -2 -0 -0 -1 -0 -0 -1 -13 -0 -0 -8
-0 -0 -0 -0 -0 -0 -0 -0 -0 -0 -0 -0 -0 -0 -0 -0 -0 -0 -0 -0 -0 -0 -0 -0 -0 -0 -0 -0 -0 -0 -0 -0 -0 -0 -0 -0 -0 -0 -0 -8 -1 -1 -0 -0 -1 -1 -1
-0 -0 -0 -0 -0 -0 -0 -0 -0 -0 -0 -0 -0 -0 -0 -0 -0 -0 -0 -0 -0 -0 -0 -0 -0 -0 -0 -0 -0 -0 -0 -0 -5 -0 -0 -0 -0 -0 -0 -0 -0 -0 -4 -0 -0 -2 -10
-0 -0 -0 -0 -0 -0 -0 -0 -0 -0 -0 -0 -0 -0 -0 -0 -0 -0 -0 -0 -0 -0 -0 -0 -0 -0 -0 -0 -0 -0 -0 -10 -0 -2 -4 -0 -0 -0 -2 -0 -0 -0 -0 -31 -1 -0 -0
-0 -0 -0 -0 -0 -0 -0 -0 -0 -0 -0 -0 -0 -0 -0 -0 -0 -0 -0 -0 -0 -0 -0 -0 -0 -0 -0 -0 -0 -0 -0 -3 -0 -0 -2 -0 -25 -0 -0 -0 -0 -0 -1 -0 -0 -0 -0
-0 -0 -0 -0 -0 -0 -0 -0 -0 -0 -0 -0 -0 -0 -0 -0 -0 -0 -0 -0 -0 -0 -0 -0 -0 -0 -0 -0 -0 -0 -0 -0 -12 -13 -48 -39 -0 -0 -38 -0 -0 -0 -0 -1 -0 -0 -0
-0 -0 -0 -0 -0 -0 -0 -0 -0 -0 -0 -0 -0 -0 -0 -0 -0 -0 -0 -0 -0 -0 -0 -0 -0 -0 -0 -0 -0 -0 -0 -0 -0 -6 -0 -0 -27 -48 -0 -0 -0 -0 -0 -0 -0 -2 -4
-0 -0 -0 -0 -0 -0 -0 -0 -0 -0 -0 -0 -0 -0 -0 -0 -0 -0 -0 -0 -0 -0 -0 -0 -0 -0 -0 -0 -0 -0 -0 -0 -20 -0 -9 -0 -0 -0 -8 -0 -0 -0 -0 -3 -2 -2 -68
-0 -0 -0 -0 -0 -0 -0 -0 -0 -0 -0 -0 -0 -0 -0 -0 -0 -0 -0 -0 -0 -0 -0 -0 -0 -0 -0 -0 -0 -0 -0 -0 -8 -39 -1 -10 -0 -0 -0 -0 -0 -0 -0 -1 -2 -0 -0
-0 -0 -0 -0 -0 -0 -0 -0 -0 -0 -0 -0 -0 -0 -0 -0 -0 -0 -0 -0 -0 -0 -0 -0 -0 -0 -0 -0 -0 -0 -0 -0 -0 -16 -0 -0 -2 -0 -0 -0 -0 -0 -0 -17 -0 -3 -2
-0 -0 -0 -0 -0 -0 -0 -0 -0 -0 -0 -0 -0 -0 -0 -0 -0 -0 -0 -0 -0 -0 -0 -0 -0 -0 -0 -8 -0 -0 -0 -0 -20 -0 -0 -0 -0 -0 -0 -0 -0 -0 -0 -0 -9 -0 -4
-0 -0 -0 -0 -0 -0 -0 -0 -0 -0 -0 -0 -0 -0 -0 -0 -0 -0 -0 -0 -0 -0 -0 -0 -0 -0 -8 -14 -20 -9 -19 -28 -0 -5 -0 -0 -0 -0 -0 -39 -1 -8 -16 -0 -0 -0 -0
-0 -0 -0 -0 -0 -0 -0 -0 -0 -0 -0 -0 -0 -0 -0 -0 -0 -0 -0 -0 -0 -0 -0 -0 -0 -0 -0 -14 -1 -0 -62 -66 -34 -0 -0 -1 -12 -0 -0 -21 -0 -0 -0 -10 -0 -0 -0
-0 -0 -0 -0 -0 -0 -0 -0 -0 -0 -0 -0 -0 -0 -0 -0 -0 -0 -0 -0 -0 -0 -0 -0 -0 -0 -0 -0 -0 -0 -0 -0 -0 -19 -1 -3 -9 -13 -1 -0 -0 -0 -0 -0 -0 -0 -0
-0 -0 -0 -0 -0 -0 -0 -0 -0 -0 -0 -0 -0 -0 -0 -0 -0 -0 -0 -0 -0 -0 -0 -0 -0 -0 -0 -0 -0 -0 -0 -0 -0 -0 -27 -0 -0 -0 -0 -0 -0 -0 -0 -0 -8 -1 -0
-0 -0 -0 -0 -0 -0 -0 -0 -0 -0 -0 -0 -0 -0 -0 -0 -0 -0 -0 -0 -0 -0 -0 -0 -0 -0 -0 -0 -0 -0 -0 -0 -0 -0 -0 -0 -0 -0 -0 -0 -0 -0 -0 -0 -0 -1 -0
-0 -0 -0 -0 -0 -0 -0 -0 -0 -0 -0 -0 -0 -0 -0 -0 -0 -0 -0 -0 -0 -0 -0 -0 -0 -0 -0 -0 -0 -0 -0 -0 -0 -0 -0 -0 -0 -0 -0 -0 -0 -0 -0 -0 -0 -0 -1
-0 -0 -0 -0 -0 -0 -0 -0 -0 -0 -0 -0 -0 -0 -0 -0 -0 -0 -0 -0 -0 -0 -0 -0 -0 -0 -0 -0 -0 -0 -0 -0 -0 -0 -0 -0 -0 -0 -0 -0 -0 -0 -0 -1 -0 -0 -0
-0 -0 -0 -0 -0 -0 -0 -0 -0 -0 -0 -0 -0 -0 -0 -0 -0 -0 -0 -0 -0 -0 -0 -0 -0 -0 -0 -0 -0 -0 -0 -0 -0 -0 -0 -0 -0 -0 -0 -0 -0 -0 -0 -0 -0 -0 -0
-0 -0 -0 -0 -0 -0 -0 -0 -0 -0 -0 -0 -0 -0 -0 -0 -0 -0 -0 -0 -0 -0 -0 -0 -0 -0 -0 -0 -0 -0 -0 -0 -0 -1 -0 -0 -0 -0 -0 -0 -0 -0 -0 -0 -0 -0 -0
-0 -0 -0 -0 -0 -0 -0 -0 -0 -0 -0 -0 -0 -0 -0 -0 -0 -0 -0 -0 -0 -0 -0 -0 -0 -0 -0 -0 -0 -0 -0 -0 -2 -0 -18 -0 -0 -0 -0 -0 -0 -0 -0 -0 -0 -0 -2
-0 -0 -0 -0 -0 -0 -0 -0 -0 -0 -0 -0 -0 -0 -0 -0 -0 -0 -0 -0 -0 -0 -0 -0 -0 -0 -0 -0 -0 -0 -0 -0 -6 -0 -2 -0 -0 -0 -0 -0 -0 -0 -0 -0 -0 -14 -0
-0 -0 -0 -0 -0 -0 -0 -0 -0 -0 -0 -0 -0 -0 -0 -6 -0 -0 -0 -0 -0 -0 -0 -0 -0 -0 -0 -0 -0 -0 -0 -0 -0 -0 -0 -0 -0 -0 -0 -0 -0 -0 -0 -0 -5 -0 -0
Wind_Speed
16 15 13 12 11 10 10 12 12 12 12 12 10 6 7 6 6 7 7 7 11 11 10 12 11 10 5 9 12 19 24 22 17 6 7 7 11 9 13 8 11 21 24 24 23 23 25
18 15 13 12 12 14 17 16 16 13 13 11 9 7 4 4 6 6 7 7 9 11 11 14 12 10 2 20 5 12 21 21 22 19 15 13 9 11 11 8 19 6 19 25 23 24 23
18 15 14 15 17 18 19 18 17 16 14 12 8 7 2 5 8 8 9 10 13 13 13 13 13 3 9 21 11 15 11 7 12 12 15 13 15 17 6 14 18 20 23 25 29 19 22
16 16 18 19 19 18 18 17 16 14 12 11 8 4 5 8 8 9 11 13 15 15 14 12 9 1 9 6 6 11 15 16 19 19 13 10 13 17 22 16 22 17 16 19 16 18 17
20 23 23 21 20 19 17 16 14 14 12 9 7 5 7 7 8 10 14 16 18 16 9 6 3 2 11 8 3 5 6 10 17 16 16 17 18 20 16 20 21 18 26 29 34 30 9
25 25 25 23 22 19 18 14 13 11 13 9 6 6 7 9 9 11 16 17 10 2 4 5 0 2 7 5 9 19 16 11 10 13 14 8 10 17 23 21 25 25 20 20 30 37 20
27 26 26 25 22 19 18 13 15 14 9 8 6 7 9 9 12 12 8 5 6 7 7 4 7 6 16 11 10 7 14 9 5 5 12 11 15 27 27 27 28 32 30 31 31 20 19
27 26 27 26 23 21 19 16 13 13 8 8 8 7 8 10 11 9 4 6 4 5 7 9 9 7 11 5 6 10 5 3 1 7 10 7 25 24 28 30 32 34 40 40 28 27 21
27 27 25 25 24 22 18 16 13 12 9 7 7 8 9 13 5 7 4 3 5 2 1 6 3 3 7 4 5 7 5 4 6 10 11 17 21 22 27 32 28 29 36 33 34 22 28
25 26 26 24 21 21 19 17 13 12 8 6 8 10 13 10 9 3 2 6 3 3 6 6 2 5 10 6 3 9 5 5 4 10 10 12 11 17 25 35 33 35 29 27 36 33 31
27 25 23 24 20 18 17 15 12 11 8 7 8 10 13 9 4 2 3 6 5 5 6 8 3 1 11 4 12 4 12 5 16 17 3 12 18 20 23 29 28 40 22 21 19 22 15
27 27 25 24 21 18 17 15 12 10 8 6 4 4 5 4 2 1 5 2 5 11 5 6 6 11 18 10 5 11 11 9 9 9 8 17 19 14 7 22 31 28 27 22 22 14 17
27 25 24 23 21 18 16 14 11 9 7 3 2 2 2 3 2 2 3 6 8 8 6 5 8 15 16 7 13 15 12 18 5 7 7 19 6 7 8 19 10 16 14 11 14 11 14
26 24 23 22 20 19 16 13 11 8 4 1 2 3 1 2 2 5 5 7 10 5 3 4 9 15 4 8 13 10 13 14 3 6 11 5 16 3 3 4 9 15 20 12 13 5 3
25 24 22 20 19 18 16 13 11 8 4 4 9 2 2 4 2 4 7 8 8 4 3 7 13 6 5 15 4 6 8 12 4 3 8 7 9 9 17 9 2 6 10 17 18 24 8
25 23 21 19 18 17 15 13 11 8 5 10 4 4 4 4 3 6 7 2 2 4 6 4 2 3 6 14 8 9 3 7 10 3 10 5 11 4 9 4 8 8 7 7 8 6 9
23 22 21 20 18 16 14 12 9 4 6 10 5 6 3 2 4 6 5 5 4 5 6 4 6 7 11 8 6 5 7 12 3 16 13 6 4 10 9 4 9 5 6 7 2 4 4
23 22 20 20 18 16 14 11 8 8 12 8 4 5 4 3 6 2 1 3 5 6 5 6 4 5 5 7 5 7 6 5 9 11 13 5 4 7 9 4 10 4 8 4 6 3 3
23 21 21 20 18 17 15 13 10 8 8 5 4 2 3 5 4 2 4 4 3 4 6 4 5 5 3 4 4 7 5 8 8 11 8 8 5 8 10 4 2 5 16 9 3 4 4
20 19 19 20 19 17 15 14 12 9 8 6 5 4 5 4 1 4 3 4 5 4 7 5 6 5 4 7 6 9 14 8 10 11 16 13 4 4 2 11 8 16 17 13 2 3 5
20 19 18 17 18 17 15 13 12 8 5 7 4 2 3 1 3 2 2 3 6 6 3 3 4 5 7 5 9 8 9 14 7 9 6 6 4 5 15 7 11 11 14 8 10 7 5
19 18 17 16 16 16 15 14 11 7 7 7 6 4 2 2 2 1 1 3 4 5 3 5 4 13 9 6 10 14 9 9 8 5 11 4 6 6 5 9 15 14 18 11 11 7 7
19 18 17 17 17 16 14 14 11 6 6 5 1 2 5 3 2 4 3 3 5 5 6 7 7 6 7 7 8 15 14 16 13 12 12 3 3 6 5 14 8 7 16 17 13 18 3
18 19 19 18 18 14 14 13 14 13 9 5 3 4 5 2 3 4 2 3 6 5 6 7 5 3 7 15 15 7 8 11 9 13 9 3 2 2 5 9 7 4 12 12 16 21 16
20 18 18 18 17 15 13 12 13 13 10 5 3 4 4 1 2 5 5 4 6 6 4 4 5 6 9 7 5 6 5 6 5 5 2 7 2 2 2 3 3 4 8 9 9 11 15
19 18 17 18 17 15 13 14 13 9 9 5 2 3 4 5 6 2 3 2 3 3 5 4 6 5 6 4 4 5 4 3 4 10 6 5 4 3 4 2 4 1 14 14 5 6 11
17 17 17 17 16 14 15 14 10 9 8 3 1 3 4 3 4 5 4 4 1 1 3 4 7 7 5 4 3 3 3 3 3 5 6 5 4 3 2 1 4 7 19 9 3 1 6
16 16 18 16 14 12 12 12 10 9 6 3 1 2 5 3 5 6 5 5 0 2 2 5 5 6 4 7 4 3 3 4 4 2 5 3 2 2 2 4 6 13 6 6 3 4 4
15 19 14 14 12 11 10 12 9 4 3 4 2 1 2 2 6 4 6 9 9 11 4 1 4 3 4 4 1 2 3 4 1 4 4 4 0 3 2 3 4 5 2 3 2 2 2
Wind_Direction
196 198 197 196 196 191 166 147 130 123 116 113 110 90 76 56 61 34 19 2 335 324 329 312 316 337 325 240 239 263 285 287 285 287 212 200 191 193 229 215 202 232 249 254 262 261 262
184 192 193 193 178 156 148 138 128 126 122 114 106 84 84 62 34 20 358 338 309 304 309 306 320 339 229 261 226 247 256 267 269 279 274 260 238 238 257 229 222 213 249 258 265 268 267
184 185 185 164 152 147 141 139 139 135 129 124 125 123 82 44 25 353 333 323 303 309 306 313 315 328 252 252 297 289 272 274 263 258 263 254 248 249 216 250 234 241 254 265 254 256 254
174 168 152 146 138 140 140 138 135 133 129 120 114 99 63 34 7 344 325 304 297 303 302 304 298 171 259 283 270 271 268 283 279 281 257 260 265 266 249 267 268 261 245 253 264 229 242
157 151 145 141 137 137 135 131 130 127 115 102 91 65 41 18 2 334 308 308 308 302 291 240 49 84 273 295 253 357 355 309 292 283 270 262 256 251 252 236 251 230 251 244 262 233 233
148 145 139 140 136 131 128 131 125 113 111 113 87 49 28 10 352 332 324 319 306 46 66 111 57 355 292 349 350 321 301 310 317 329 326 264 254 249 237 228 245 245 245 246 248 257 224
143 143 140 137 133 137 126 133 130 118 117 98 75 44 23 1 351 347 347 20 9 356 32 291 261 284 317 308 294 270 296 284 293 272 277 290 291 242 258 256 252 250 256 256 248 251 229
141 141 140 139 137 133 136 137 128 115 112 92 63 33 12 354 348 353 48 80 130 180 299 277 269 271 265 266 296 317 5 9 163 276 287 280 250 275 293 270 256 253 254 254 260 260 232
139 141 139 138 137 136 137 134 123 118 96 78 54 22 4 353 34 44 48 79 129 110 316 299 243 221 277 164 255 285 28 308 279 291 274 255 275 277 267 274 284 271 250 260 257 255 252
136 132 133 131 136 138 137 131 128 111 101 70 48 23 8 353 46 315 36 326 153 153 64 305 319 276 359 325 304 342 341 279 305 282 309 273 255 271 265 261 254 260 268 279 262 256 246
131 131 128 131 139 136 133 128 123 114 99 65 39 26 19 53 151 84 315 324 159 54 57 289 60 44 345 26 281 43 326 309 288 282 242 270 295 291 295 267 259 255 248 274 274 271 269
136 135 140 139 136 138 133 129 127 118 99 77 39 19 65 25 27 264 320 82 55 44 279 328 18 350 346 343 332 319 319 287 276 275 243 259 289 276 254 291 259 253 256 253 282 269 263
142 140 140 134 140 139 135 134 128 121 103 117 156 221 118 133 184 310 13 43 41 98 279 9 343 340 330 319 340 324 326 320 301 311 313 312 292 243 271 311 276 232 222 245 246 225 253
141 139 135 139 142 142 137 127 123 113 132 199 220 168 358 212 50 40 46 50 66 242 280 338 331 321 301 356 331 317 312 306 312 265 299 285 312 279 290 261 290 272 209 210 236 224 283
135 136 140 143 141 136 132 129 128 137 154 187 134 10 40 320 112 64 77 60 191 214 317 327 326 318 327 331 297 328 290 277 260 325 299 290 272 285 274 269 259 333 218 222 241 275 278
139 141 142 138 134 133 132 133 135 146 158 150 101 73 3 0 92 52 67 167 213 227 322 327 277 284 305 317 321 329 291 270 317 246 278 270 286 267 287 335 281 251 309 191 182 225 239
138 135 134 133 133 130 131 129 130 155 177 147 64 68 269 292 61 47 107 225 277 275 330 322 274 274 292 299 281 269 256 290 253 310 301 258 246 288 306 2 323 337 5 319 189 125 196
134 133 132 130 129 127 123 116 106 143 125 64 87 68 312 23 49 25 93 217 306 303 311 278 238 257 257 294 280 284 284 274 316 322 319 312 274 274 276 315 293 293 332 309 346 6 84
134 135 133 131 130 126 122 116 105 96 141 122 92 126 324 79 103 337 299 301 270 302 308 311 282 258 270 262 302 262 277 275 312 334 327 344 309 320 350 297 345 336 342 329 303 331 45
129 130 131 130 129 125 118 115 105 102 135 95 92 70 342 47 142 113 24 300 323 266 272 255 256 277 320 290 248 278 288 299 313 298 300 331 297 165 250 277 312 323 332 343 32 14 354
132 131 132 130 126 121 119 111 103 101 110 92 50 224 189 244 348 81 89 288 303 313 263 306 301 283 279 267 289 264 284 305 302 290 328 1 297 316 311 300 325 308 332 344 31 36 40
134 131 132 130 125 119 112 103 103 131 111 77 114 119 348 114 43 46 18 261 261 293 239 281 262 305 291 208 208 283 298 295 281 309 344 341 284 321 298 325 352 17 1 7 33 11 68
140 136 133 130 120 121 111 103 83 73 72 97 104 30 96 312 69 82 225 257 277 326 287 253 280 300 296 261 272 277 271 271 264 280 298 258 295 337 299 334 337 26 13 32 42 24 1
135 131 128 126 119 115 103 92 85 66 74 109 140 107 90 281 113 213 246 260 269 281 247 270 265 264 267 304 300 281 251 255 261 270 208 258 10 350 299 350 30 21 360 23 51 30 45
130 131 130 122 112 105 97 89 80 76 73 87 116 116 122 154 228 283 237 251 290 283 265 255 277 251 299 313 354 348 342 2 332 354 119 208 73 323 76 305 258 5 7 359 6 33 24
127 130 129 116 109 102 94 82 72 73 83 77 116 107 107 127 238 216 222 243 247 300 324 270 305 314 12 32 32 5 358 316 317 335 25 78 32 121 359 64 357 312 326 329 336 43 4
130 131 122 110 105 104 98 91 79 66 70 97 119 132 106 132 253 172 199 192 181 246 254 301 327 345 36 15 15 11 323 293 338 343 341 338 358 91 360 4 309 334 325 313 39 265 320
130 126 111 108 102 101 99 90 76 61 59 105 212 143 124 167 259 208 220 186 48 177 158 276 36 348 7 35 44 305 326 303 317 311 314 310 4 309 3 27 355 343 355 50 236 288 9
139 110 111 107 109 107 96 83 77 67 51 100 80 340 138 193 235 229 232 231 196 208 144 300 184 195 190 63 353 313 329 345 279 320 326 21 79 354 44 203 260 260 173 269 206 349 317